Hagerstown, MD

2:07 AM EDT on September 20, 2017 (GMT -0400)
Hagerstown Regional-Henson

Weather History for KHGR - August, 2013

Change the Weather History Date:

Saturday, August 3, 2013

  Actual Average Record
Temperature  
Mean Temperature 72 °F 75 °F  
Max Temperature 75 °F 85 °F 96 °F (2006)
Min Temperature 69 °F 65 °F 59 °F (1998)
Degree Days  
Heating Degree Days 0 0  
Month to date heating degree days 0 0  
Since 1 June heating degree days 3 18  
Since 1 July heating degree days 0 0  
Cooling Degree Days 7 10  
Month to date cooling degree days 24 30  
Year to date cooling degree days 769 636  
Since 1 June cooling degree days 652 560  
Growing Degree Days 20 (Base 50)    
Moisture  
Dew Point 63 °F    
Average Humidity 71    
Maximum Humidity 84    
Minimum Humidity 57    
Precipitation  
Precipitation 0.05 in 0.10 in 0.23 in (2011)
Month to date precipitation 0.16 0.28  
Year to date precipitation 17.64 23.77  
Sea Level Pressure  
Sea Level Pressure 29.98 in    
Wind  
Wind Speed 4 mph (SSW)    
Max Wind Speed 12 mph    
Max Gust Speed 14 mph    
Visibility 9 miles    
Events Rain    
T = Trace of Precipitation, MM = Missing Value Source: NWS Daily Summary

Daily Weather History Graph

Daily Weather History Graph

Search for Another Location

Airport or City:

Trip Planner

Search our weather history database for the weather conditions in past years. The results will help you decide how hot, cold, wet, or windy it might be!

Date:

Astronomy

Aug. 03, 2013 Rise Set
Actual Time 6:12 AM EDT 8:21 PM EDT
Civil Twilight 5:42 AM EDT 8:51 PM EDT
Nautical Twilight 5:05 AM EDT 9:27 PM EDT
Astronomical Twilight 4:25 AM EDT 10:07 PM EDT
Moon 3:19 AM EDT (8/3) 6:02 PM EDT (8/3)
Length of Visible Light 15h 09m
Length of Day
14h 09m
Waning Crescent, 9% of the Moon is Illuminated
Aug 3
Waning Crescent
Aug 6
New
Aug 14
First Quarter
Aug 20
Full
Aug 28
Last Quarter

Hourly Weather History & Observations

Time (EDT) Temp. Dew Point Humidity Pressure Visibility Wind Dir Wind Speed Gust Speed Precip Events Conditions
12:53 AM 73.0 °F 57.9 °F 59% 29.98 in 10.0 mi SW 5.8 mph - N/A   Clear
1:53 AM 73.0 °F 57.9 °F 59% 29.96 in 10.0 mi SW 4.6 mph - N/A   Clear
2:53 AM 73.0 °F 59.0 °F 61% 29.96 in 10.0 mi SW 3.5 mph - N/A   Clear
3:53 AM 72.0 °F 59.0 °F 64% 29.96 in 10.0 mi South 4.6 mph - N/A   Partly Cloudy
4:53 AM 72.0 °F 59.0 °F 64% 29.97 in 10.0 mi South 4.6 mph - N/A   Clear
5:53 AM 73.0 °F 59.0 °F 61% 29.97 in 10.0 mi Calm Calm - N/A   Scattered Clouds
6:53 AM 70.0 °F 61.0 °F 73% 29.98 in 10.0 mi Calm Calm - 0.01 in Rain Light Rain
7:53 AM 69.1 °F 64.0 °F 84% 29.99 in 10.0 mi Calm Calm - 0.03 in Rain Light Rain
8:53 AM 69.1 °F 64.9 °F 87% 29.99 in 10.0 mi Calm Calm - 0.00 in   Overcast
9:53 AM 70.0 °F 64.9 °F 84% 29.99 in 10.0 mi South 4.6 mph - N/A   Overcast
10:53 AM 70.0 °F 64.0 °F 81% 30.00 in 10.0 mi South 4.6 mph - 0.00 in Rain Light Rain
11:53 AM 73.0 °F 63.0 °F 71% 30.00 in 10.0 mi SSW 5.8 mph - 0.00 in   Mostly Cloudy
12:53 PM 75.0 °F 63.0 °F 66% 29.99 in 10.0 mi SW 8.1 mph - N/A   Mostly Cloudy
1:53 PM 72.0 °F 64.9 °F 78% 29.99 in 8.0 mi SW 5.8 mph - 0.00 in Rain Light Rain
2:53 PM 70.0 °F 66.0 °F 87% 29.99 in 8.0 mi SW 8.1 mph - 0.01 in   Overcast
3:53 PM 69.1 °F 64.9 °F 87% 29.98 in 10.0 mi SW 6.9 mph - N/A   Overcast
4:53 PM 70.0 °F 64.0 °F 81% 29.96 in 10.0 mi SSW 5.8 mph - N/A   Overcast
5:53 PM 72.0 °F 64.9 °F 78% 29.95 in 10.0 mi SW 9.2 mph - N/A   Mostly Cloudy
6:53 PM 71.1 °F 64.9 °F 81% 29.96 in 10.0 mi SSW 3.5 mph - N/A   Overcast
7:53 PM 71.1 °F 66.0 °F 84% 29.96 in 10.0 mi SW 6.9 mph - N/A   Partly Cloudy
8:53 PM 68.0 °F 66.0 °F 93% 29.97 in 7.0 mi South 4.6 mph - N/A   Scattered Clouds
9:53 PM 68.0 °F 66.0 °F 93% 29.99 in 7.0 mi SSE 4.6 mph - N/A   Overcast
10:53 PM 66.0 °F 64.0 °F 93% 29.99 in 6.0 mi SSE 4.6 mph - N/A   Scattered Clouds
11:53 PM 64.9 °F 64.0 °F 97% 29.99 in 4.0 mi SSE 4.6 mph - N/A   Partly Cloudy